Location: Carlisle
(34.5501°N, 84.5969°W)
Time: 08:47:55
(UTC+00:00)

CAS-4A - Visible Passes

Search period start: 04 March 2024 00:00
Search period end: 14 March 2024 00:00
Orbit: 486 x 501 km, 43.0° (Epoch: 03 March)

Date Brightness Start Highest point End Pass type
(mag) Time Alt. Az. Time Alt. Az. Time Alt. Az.
04 Mar ? 10:14:08 52° SSE 10:14:08 52° SSE 10:17:10 10° SE visible
05 Mar ? 09:51:24 20° SE 09:51:24 20° SE 09:52:43 10° SE visible
05 Mar ? 11:26:45 10° SW 11:27:33 11° SW 11:28:21 10° SSW visible
06 Mar ? 11:03:17 10° SW 11:03:17 10° SW 11:03:28 10° SW visible
09 Mar ? 01:29:08 10° SW 01:30:50 23° SSW 01:30:50 23° SSW visible
10 Mar ? 01:04:33 10° SW 01:08:09 43° SE 01:08:11 43° SE visible
11 Mar ? 00:39:58 10° SW 00:43:34 44° SE 00:45:25 24° E visible
11 Mar ? 02:19:12 10° W 02:19:53 14° W 02:19:53 14° W visible
12 Mar ? 00:15:20 10° SW 00:18:58 45° SE 00:22:29 11° ENE visible
12 Mar ? 01:54:36 10° W 01:56:57 29° WNW 01:56:57 29° WNW visible
13 Mar ? 01:30:00 10° W 01:33:32 37° NNW 01:33:53 36° N visible
